Change the Weather History Date:

Thursday, November 7, 2013

  Actual Average Record
Temperature  
Mean Temperature 38 °F -  
Max Temperature 46 °F 50 °F 69 °F (2001)
Min Temperature 30 °F 35 °F 24 °F (1998)
Degree Days  
Heating Degree Days 27    
Moisture  
Dew Point 34 °F    
Average Humidity 84    
Maximum Humidity 100    
Minimum Humidity 51    
Precipitation  
Precipitation 0.00 in - - ()
Sea Level Pressure  
Sea Level Pressure 30.22 in    
Wind  
Wind Speed 12 mph (West)    
Max Wind Speed 18 mph    
Max Gust Speed 25 mph    
Visibility 10 miles    
Events      
Averages and records for this station are not official NWS values.
T = Trace of Precipitation, MM = Missing Value Source: NWS Daily Summary

Daily Weather History Graph

Daily Weather History Graph

Search for Another Location

Airport or City:

Trip Planner

Search our weather history database for the weather conditions in past years. The results will help you decide how hot, cold, wet, or windy it might be!

Date:

Astronomy

Nov. 07, 2013 Rise Set
Actual Time 7:22 AM EST 5:33 PM EST
Civil Twilight 6:53 AM EST 6:02 PM EST
Nautical Twilight 6:20 AM EST 6:35 PM EST
Astronomical Twilight 5:48 AM EST 7:07 PM EST
Moon 11:30 AM EST (11/7) 9:44 PM EST (11/7)
Length of Visible Light 11h 09m
Length of Day
10h 11m
Waxing Crescent, 22% of the Moon is Illuminated
Nov 7
Waxing Crescent
Nov 10
First Quarter
Nov 17
Full
Nov 25
Last Quarter
Dec 2
New

Hourly Weather History & Observations

Time (EST) Temp. Windchill Dew Point Humidity Pressure Visibility Wind Dir Wind Speed Gust Speed Precip Events Conditions
12:58 AM 40.8 °F 34.1 °F 40.8 °F 100% 30.13 in 10.0 mi WNW 11.5 mph - N/A   Overcast
1:58 AM 40.5 °F 33.6 °F 40.3 °F 99% 30.14 in 10.0 mi WNW 11.5 mph - N/A   Overcast
2:58 AM 38.7 °F 31.4 °F 38.7 °F 100% 30.15 in 10.0 mi WNW 11.5 mph - N/A   Mostly Cloudy
3:58 AM 36.0 °F 28.0 °F 35.2 °F 97% 30.17 in 10.0 mi WNW 11.5 mph - N/A   Clear
4:58 AM 34.0 °F 27.2 °F 33.3 °F 97% 30.20 in 10.0 mi WNW 8.1 mph - N/A   Clear
5:58 AM 32.2 °F 25.8 °F 32.2 °F 100% 30.23 in 10.0 mi West 6.9 mph - N/A   Clear
6:58 AM 30.7 °F 24.1 °F 30.6 °F 99% 30.24 in 10.0 mi West 6.9 mph - N/A   Clear
7:58 AM 30.0 °F 23.2 °F 30.0 °F 100% 30.25 in 10.0 mi West 6.9 mph - N/A   Clear
8:58 AM 33.4 °F 26.6 °F 31.5 °F 92% 30.27 in 10.0 mi West 8.1 mph - N/A   Clear
9:58 AM 36.7 °F 29.4 °F 33.4 °F 88% 30.28 in 10.0 mi West 10.4 mph - N/A   Clear
10:30 AM 39.2 °F 32.5 °F 33.8 °F 81% 30.26 in 10.0 mi West 10.4 mph - N/A   Clear
10:58 AM 40.1 °F 33.2 °F 34.0 °F 79% 30.29 in 10.0 mi West 11.5 mph - N/A   Clear
11:58 AM 43.2 °F 36.6 °F 32.2 °F 65% 30.27 in 10.0 mi West 12.7 mph 17.3 mph N/A   Clear
12:58 PM 45.9 °F 39.7 °F 31.5 °F 57% 30.25 in 10.0 mi West 13.8 mph 21.9 mph N/A   Clear
1:58 PM 46.8 °F - 29.5 °F 51% 30.22 in 10.0 mi WSW 18.4 mph - N/A   Clear
2:58 PM 46.8 °F - 30.9 °F 54% 30.22 in 10.0 mi West 18.4 mph 25.3 mph N/A   Clear
3:58 PM 45.0 °F 37.6 °F 32.2 °F 61% 30.21 in 10.0 mi West 17.3 mph - N/A   Overcast
4:58 PM 43.5 °F 36.4 °F 33.8 °F 69% 30.21 in 10.0 mi West 15.0 mph - N/A   Overcast
5:58 PM 42.3 °F 35.9 °F 36.0 °F 78% 30.21 in 10.0 mi West 11.5 mph - N/A   Overcast
6:58 PM 41.5 °F 37.1 °F 36.0 °F 81% 30.22 in 10.0 mi WSW 6.9 mph - N/A   Overcast
7:58 PM 40.8 °F 35.0 °F 36.5 °F 85% 30.22 in 10.0 mi West 9.2 mph - N/A   Overcast
8:58 PM 39.9 °F 31.4 °F 36.1 °F 86% 30.22 in 10.0 mi NW 16.1 mph - N/A   Mostly Cloudy
9:08 PM 39.2 °F 30.8 °F 35.6 °F 87% 30.19 in 10.0 mi NW 15.0 mph - N/A   Overcast
9:38 PM 39.2 °F 30.2 °F 35.6 °F 87% 30.20 in 10.0 mi WNW 17.3 mph - N/A   Overcast
9:43 PM 39.2 °F 30.2 °F 32.0 °F 75% 30.20 in 10.0 mi WNW 17.3 mph - N/A   Overcast
9:58 PM 39.0 °F 30.6 °F 34.3 °F 83% 30.24 in 10.0 mi WNW 15.0 mph - N/A   Overcast
10:03 PM 39.2 °F 31.2 °F 33.8 °F 81% 30.21 in 10.0 mi WNW 13.8 mph - N/A   Overcast
10:18 PM 37.4 °F 30.3 °F 33.8 °F 87% 30.21 in 10.0 mi WNW 10.4 mph - N/A   Mostly Cloudy
10:58 PM 34.9 °F 24.9 °F 33.3 °F 94% 30.26 in 10.0 mi WNW 16.1 mph - N/A   Partly Cloudy
11:58 PM 31.6 °F 24.4 °F 31.6 °F 100% 30.27 in 10.0 mi West 8.1 mph - N/A   Clear